カタログに戻る

N-1 DEB

運用中LEO
NORAD 14569·DEBRIS·🇯🇵 Japan

打ち上げ Sep 3, 1982 から Tanegashima Space Center

Loading…

次のパス (今後24時間)

TLE

最新Source: Space-Track

元期: Sep 14, 2026, 10:37 UTC

1 14569U 82087D   26257.44275358 -.00000108  00000-0  74168-5 0  9991
2 14569  44.8433  44.6398 0122681 312.6627  81.1114 13.55861829216535

AllMySatでN-1 DEBをリアルタイム追跡

Download on the App Store